Weather History for Hatteras, NC

Change the Weather History Date:

Saturday, March 9, 2013

  Actual Average Record
Temperature  
Mean Temperature 48 °F 50 °F  
Max Temperature 52 °F 57 °F 73 °F (1921)
Min Temperature 43 °F 43 °F 23 °F (1986)
Degree Days  
Heating Degree Days 17 15  
Month to date heating degree days 169 143  
Since 1 July heating degree days 1901 2067  
Cooling Degree Days 0 0  
Month to date cooling degree days 0 0  
Year to date cooling degree days 0 0  
Moisture  
Dew Point 33 °F    
Average Humidity 58    
Maximum Humidity 70    
Minimum Humidity 46    
Precipitation  
Precipitation 0.00 in 0.15 in 0.86 in (1958)
Month to date precipitation 0.24 1.33  
Year to date precipitation 9.97 10.59  
Snow  
Snow 0.00 in - - ()
Month to date snowfall 0.0  
Since 1 July snowfall 0.0  
Snow Depth 0.00 in    
Sea Level Pressure  
Sea Level Pressure 30.23 in    
Wind  
Wind Speed 9 mph (NNE)    
Max Wind Speed 17 mph    
Max Gust Speed 36 mph    
Visibility 10 miles    
Events      
T = Trace of Precipitation, MM = Missing Value Source: NWS Daily Summary

Daily Weather History Graph

Daily Weather History Graph

Search for Another Location

Airport:

Trip Planner

Search our weather history database for the weather conditions in past years. The results will help you decide how hot, cold, wet, or windy it might be!

Date:

Astronomy

Mar. 09, 2013 Rise Set
Actual Time 6:21 AM EST 6:05 PM EST
Civil Twilight 5:55 AM EST 6:30 PM EST
Nautical Twilight 5:26 AM EST 6:59 PM EST
Astronomical Twilight 4:56 AM EST 7:29 PM EST
Moon 4:39 AM EST (3/9) 4:07 PM EST (3/9)
Length of Visible Light 12h 34m
Length of Day
11h 44m
Waning Crescent, 5% of the Moon is Illuminated
Mar 9
Waning Crescent
Mar 11
New
Mar 19
First Quarter
Mar 27
Full
Apr 3
Last Quarter

Hourly Weather History & Observations

Time (EST) Temp. Windchill Dew Point Humidity Pressure Visibility Wind Dir Wind Speed Gust Speed Precip Events Conditions
12:51 AM 46.0 °F 39.6 °F 33.1 °F 61% 30.16 in 10.0 mi North 15.0 mph 26.5 mph N/A   Overcast
1:51 AM 46.0 °F 41.0 °F 33.1 °F 61% 30.16 in 10.0 mi North 10.4 mph 20.7 mph N/A   Mostly Cloudy
2:51 AM 45.0 °F 38.9 °F 32.0 °F 60% 30.15 in 10.0 mi North 12.7 mph 24.2 mph N/A   Overcast
3:51 AM 45.0 °F 38.2 °F 32.0 °F 60% 30.15 in 10.0 mi NNE 15.0 mph 29.9 mph N/A   Mostly Cloudy
4:51 AM 44.1 °F 38.6 °F 32.0 °F 63% 30.17 in 10.0 mi North 10.4 mph 26.5 mph N/A   Partly Cloudy
5:51 AM 44.1 °F 40.1 °F 32.0 °F 63% 30.18 in 10.0 mi Variable 6.9 mph 19.6 mph N/A   Clear
6:51 AM 43.0 °F 37.2 °F 34.0 °F 71% 30.20 in 10.0 mi NNW 10.4 mph 18.4 mph N/A   Clear
7:51 AM 45.0 °F 41.8 °F 34.0 °F 65% 30.22 in 10.0 mi Variable 5.8 mph - N/A   Clear
8:51 AM 46.9 °F - 33.1 °F 59% 30.23 in 10.0 mi Variable 6.9 mph - N/A   Clear
9:51 AM 48.0 °F - 33.1 °F 56% 30.24 in 10.0 mi North 10.4 mph 20.7 mph N/A   Clear
10:51 AM 48.9 °F - 33.1 °F 54% 30.25 in 10.0 mi North 11.5 mph 23.0 mph N/A   Clear
11:51 AM 50.0 °F - 33.1 °F 52% 30.25 in 10.0 mi NNE 9.2 mph 23.0 mph N/A   Clear
12:51 PM 50.0 °F - 35.1 °F 57% 30.23 in 10.0 mi NNE 10.4 mph 23.0 mph N/A   Clear
1:51 PM 51.1 °F - 33.1 °F 50% 30.23 in 10.0 mi NNE 11.5 mph 24.2 mph N/A   Clear
2:51 PM 50.0 °F - 34.0 °F 54% 30.23 in 10.0 mi NNE 12.7 mph 19.6 mph N/A   Clear
3:51 PM 50.0 °F - 30.0 °F 46% 30.24 in 10.0 mi NNE 10.4 mph 19.6 mph N/A   Clear
4:51 PM 50.0 °F - 30.0 °F 46% 30.23 in 10.0 mi NNE 8.1 mph 17.3 mph N/A   Clear
5:51 PM 48.0 °F - 30.0 °F 50% 30.25 in 10.0 mi NNE 8.1 mph - N/A   Clear
6:51 PM 46.9 °F - 30.9 °F 54% 30.25 in 10.0 mi NNE 8.1 mph - N/A   Clear
7:51 PM 46.0 °F 41.4 °F 33.1 °F 61% 30.27 in 10.0 mi NNE 9.2 mph - N/A   Clear
8:51 PM 45.0 °F 41.2 °F 34.0 °F 65% 30.28 in 10.0 mi Variable 6.9 mph - N/A   Clear
9:51 PM 45.0 °F 42.6 °F 30.9 °F 58% 30.30 in 10.0 mi NNE 4.6 mph - N/A   Clear
10:51 PM 45.0 °F 41.8 °F 32.0 °F 60% 30.30 in 10.0 mi Variable 5.8 mph - N/A   Clear
11:51 PM 45.0 °F 41.8 °F 34.0 °F 65% 30.28 in 10.0 mi NNE 5.8 mph - N/A   Clear